GFSSE_con_mlcape_021.txt.gz
CAPE
156 551 641 1116 1293 1194 1084 958 820 666 617 601 553 458 499 428 404 366 718 541 510 372 251 211 138 109 98 2 0 0 0 0 0 75 725 569 440 305 159 142 439 416 504
94 685 804 1361 1300 1262 1084 950 883 767 631 586 448 669 653 605 566 734 621 418 304 173 41 0 3 4 2 2 0 0 0 0 0 0 50 231 246 79 0 0 0 82 397
46 640 940 1399 1343 1219 996 918 803 765 828 719 988 881 807 629 481 548 546 411 302 83 8 0 1 3 3 0 0 0 0 0 0 0 0 25 118 295 20 0 0 0 0
0 632 955 1230 1345 1202 976 957 632 611 902 975 912 810 699 481 409 375 296 317 106 1 0 0 0 0 0 0 0 0 0 0 0 0 0 0 4 103 227 1 0 0 0
0 606 970 1173 1181 1229 1092 947 627 495 746 898 880 806 710 490 241 28 1 15 0 0 0 0 0 0 0 0 0 0 0 0 0 0 0 0 1 26 103 79 2 0 0
0 359 954 1084 1270 1247 1114 897 641 515 689 1067 955 785 570 107 0 0 2 2 0 0 0 0 0 0 0 0 0 0 0 0 0 0 0 0 8 2 5 65 10 0 0
0 73 680 892 1069 1102 1127 986 775 615 745 1125 833 554 232 57 2 2 0 1 0 0 0 0 0 0 0 0 0 0 0 0 0 0 0 0 0 0 7 3 4 8 5
0 0 80 540 850 915 965 1004 882 699 748 942 646 157 86 1 3 0 0 1 0 0 0 0 0 0 0 0 0 0 0 0 0 0 0 0 0 0 0 0 0 0 0
15 17 83 253 435 562 712 767 760 700 655 794 205 0 0 0 1 1 0 0 0 0 0 0 0 0 0 0 0 0 0 0 0 0 0 0 0 0 0 0 0 0 0
14 42 85 151 247 456 647 677 725 643 676 403 4 0 0 0 0 0 0 0 0 0 0 0 0 0 0 0 0 0 0 0 0 0 0 0 0 0 0 0 0 0 0
0 51 74 123 195 231 285 467 423 426 339 184 0 0 0 0 0 0 0 0 0 0 0 0 0 0 0 0 0 0 0 0 0 0 0 0 0 0 0 0 0 0 0
0 1 32 87 147 171 130 136 341 323 305 150 25 0 0 0 0 0 0 0 0 0 0 0 0 0 0 0 0 0 0 0 0 0 0 0 0 0 0 0 0 0 0
0 0 0 5 47 94 92 50 72 47 126 252 136 15 2 0 0 0 0 0 0 0 0 0 0 0 0 0 0 0 0 0 0 0 0 0 0 0 0 0 0 0 0
0 0 0 0 0 12 30 5 16 15 38 90 59 10 5 1 0 0 0 0 0 0 0 0 0 0 0 0 0 0 0 0 0 0 0 0 0 0 0 0 0 0 0
0 0 0 0 0 0 22 20 0 0 0 27 2 2 1 0 0 0 0 0 0 0 0 0 0 0 0 0 0 0 0 0 0 0 0 0 0 0 0 0 0 1 3
0 0 0 0 0 0 0 1 0 0 0 0 0 0 0 0 0 0 0 0 0 0 0 0 0 0 0 0 0 0 0 0 0 0 0 0 0 0 0 0 0 1 4
0 0 0 0 0 0 0 0 0 0 0 0 0 0 0 0 0 0 0 0 0 0 0 0 0 0 0 0 0 0 0 0 0 0 0 0 0 0 0 4 4 0 4
0 0 0 0 0 0 0 0 0 0 0 0 0 0 0 0 0 0 0 0 0 0 0 0 0 0 0 0 0 0 0 0 0 0 0 0 0 0 0 0 0 0 0
0 0 0 0 0 0 0 0 0 0 0 0 0 0 0 0 0 0 0 0 0 0 0 0 0 0 0 0 0 0 0 0 0 0 0 0 0 0 0 0 0 0 0
0 0 0 0 0 0 0 0 0 0 0 0 0 0 0 0 0 0 0 0 0 0 0 0 0 0 0 0 0 0 0 0 0 0 0 0 0 0 0 0 0 0 0
0 0 0 0 0 0 0 0 0 0 0 0 0 0 0 0 0 0 0 0 0 0 0 0 0 0 0 0 0 0 0 0 0 0 0 0 0 0 0 0 0 0 0
0 0 0 0 0 0 0 0 0 0 0 0 0 0 0 0 0 0 0 0 0 0 0 0 0 0 0 0 0 0 0 0 0 0 0 0 0 0 0 0 0 0 0
0 0 0 0 0 0 0 0 0 0 0 0 0 0 0 0 0 0 0 0 0 0 0 0 0 0 0 0 0 0 0 0 0 0 0 0 0 0 0 0 0 0 0
0 0 0 0 0 0 0 0 0 0 0 0 0 0 0 0 0 0 0 0 0 0 0 0 0 0 0 0 0 0 0 0 0 0 0 0 0 0 0 0 0 0 0
0 0 0 0 0 0 0 0 0 0 0 0 0 0 0 0 0 0 0 0 0 0 0 0 0 0 0 0 0 0 0 0 0 0 0 0 0 0 0 0 0 0 0
0 0 0 0 0 0 0 0 0 0 0 0 0 0 0 0 0 0 0 0 0 0 0 0 0 0 0 0 0 0 0 0 0 0 0 0 0 0 0 0 0 0 0

GFSSE_con_mlcape_027.txt.gz
CAPE
421 509 912 1112 1222 1189 1163 1113 969 659 500 476 501 431 298 425 523 916 806 663 526 475 339 132 47 6 2 1 0 0 0 12 152 497 241 139 172 132 233 174 320 456 544
458 660 917 1127 1220 1315 1216 1090 905 626 446 450 479 334 233 279 712 752 570 305 267 172 122 94 29 0 2 0 0 0 0 0 0 2 56 0 0 0 0 0 52 407 577
467 668 899 1189 1159 1199 1098 938 786 737 773 701 576 564 568 484 490 468 132 153 144 32 16 0 0 1 0 0 0 0 0 0 0 0 0 0 12 0 0 0 0 60 323
443 645 792 1163 1266 1220 1044 874 644 801 943 838 736 712 608 501 404 376 350 196 73 6 2 0 0 0 0 0 0 0 0 0 0 0 0 4 57 147 4 0 3 1 6
468 577 785 1208 1323 1228 1040 932 870 810 781 801 1054 977 689 468 392 243 255 186 25 1 0 0 0 0 0 0 0 0 0 0 0 0 0 2 5 113 125 10 0 0 0
446 637 696 1200 1410 1316 1101 956 771 712 780 969 986 893 711 554 251 76 57 46 3 1 0 0 0 0 0 0 0 0 0 0 0 0 0 0 0 0 8 16 18 6 6
230 783 840 1128 1352 1320 1155 963 758 617 761 961 942 862 803 522 95 0 0 2 3 1 0 0 0 0 0 0 0 0 0 0 0 0 0 0 0 0 3 9 9 5 6
5 752 971 1046 1211 1341 1199 1026 861 610 550 780 959 910 801 385 39 0 0 1 0 0 0 0 0 0 0 0 0 0 0 0 0 0 0 0 0 0 0 0 2 5 1
0 302 855 1032 1047 1088 1174 1102 964 791 557 549 910 896 625 257 29 0 0 1 4 0 0 0 0 0 0 0 0 0 0 0 0 0 0 0 0 0 0 0 0 0 0
0 13 341 783 967 998 952 922 833 833 662 525 934 768 472 245 0 0 0 1 2 0 0 0 0 0 0 0 0 0 0 0 0 0 0 0 0 0 0 0 0 0 0
0 0 10 206 483 684 836 796 696 643 670 585 634 537 237 4 0 0 0 0 0 0 0 0 0 0 0 0 0 0 0 0 0 0 0 0 0 0 0 0 0 0 0
0 0 0 2 101 242 558 717 654 632 587 538 410 202 51 0 0 0 0 0 0 0 0 0 0 0 0 0 0 0 0 0 0 0 0 0 0 0 0 0 0 0 0
0 0 0 0 7 112 189 229 279 344 376 333 288 50 0 0 0 0 0 0 0 0 0 0 0 0 0 0 0 0 0 0 0 0 0 0 0 0 0 0 0 0 0
0 0 0 0 0 12 125 142 314 292 290 317 207 10 0 0 0 0 0 0 0 0 0 0 0 0 0 0 0 0 0 0 0 0 0 0 0 0 0 0 0 0 0
0 0 0 0 0 0 16 45 130 225 191 202 98 9 0 0 0 0 0 0 0 0 0 0 0 0 0 0 0 0 0 0 0 0 0 0 0 0 0 0 0 0 0
0 0 0 0 0 0 0 10 7 44 90 65 2 15 21 0 0 0 0 0 0 0 0 0 0 0 0 0 0 0 0 0 0 0 0 0 0 0 0 0 0 2 6
0 0 0 0 0 0 0 0 0 0 0 1 0 0 0 0 0 0 0 0 0 0 0 0 0 0 0 0 0 0 0 0 0 0 0 0 0 0 0 0 0 5 5
0 0 0 0 0 0 0 0 0 0 0 0 0 1 0 0 0 0 0 0 0 0 0 0 0 0 0 0 0 0 0 0 0 0 0 0 0 0 0 0 0 0 0
0 0 0 0 0 0 0 0 0 0 0 0 0 3 1 0 0 0 0 0 0 0 0 0 0 0 0 0 0 0 0 0 0 0 0 0 0 0 0 0 0 0 0
0 0 0 0 0 0 0 0 0 0 0 0 0 2 0 1 0 0 0 0 0 0 0 0 0 0 0 0 0 0 0 0 0 0 0 0 0 0 0 0 0 0 0
0 0 0 0 0 0 0 0 0 0 0 1 1 2 1 2 1 0 0 0 0 0 0 0 0 0 0 0 0 0 0 0 0 0 0 0 0 0 0 0 0 0 0
0 0 0 0 0 0 0 0 0 0 0 0 0 0 0 1 1 1 0 0 0 0 0 0 0 0 0 0 0 0 0 0 0 0 0 0 0 0 0 0 0 0 0
0 0 0 0 0 0 0 0 0 0 0 0 0 0 0 0 0 0 0 0 0 0 0 0 0 0 0 0 0 0 0 0 0 0 0 0 0 0 0 0 0 0 0
0 0 0 0 0 0 0 0 0 0 0 0 0 0 0 0 0 0 0 0 0 0 0 0 0 0 0 0 0 0 0 0 0 0 0 0 0 0 0 0 0 0 0
0 0 0 0 0 0 0 0 0 0 0 0 0 0 0 0 0 0 0 0 0 0 0 0 0 0 0 0 0 0 0 0 0 0 0 0 0 0 0 0 0 0 0
0 0 0 0 0 0 0 0 0 0 0 0 0 0 0 0 0 0 0 0 0 0 0 0 0 0 0 0 0 0 0 0 0 0 0 0 0 0 0 0 0 0 0

GFSSE_con_mlcape_030.txt.gz
CAPE
267 396 1159 1375 1363 1535 1503 1212 997 794 729 592 574 411 435 586 1069 1071 862 748 693 500 244 76 28 2 3 0 0 0 6 50 313 347 240 289 268 234 189 194 348 449 485
151 579 1065 1289 1384 1461 1501 1207 924 725 701 693 605 448 516 609 945 816 582 419 295 153 134 119 27 1 0 0 0 0 0 0 0 2 25 1 0 3 0 0 213 454 485
301 744 1027 1212 1424 1447 1303 1138 902 675 623 692 600 425 417 641 829 690 409 244 163 103 49 12 6 0 0 0 0 0 0 0 0 0 0 0 0 0 0 0 0 155 184
422 708 1020 1156 1362 1392 1217 1064 910 745 727 759 691 640 484 493 642 591 344 255 101 16 21 4 0 0 0 0 0 0 0 0 0 0 0 36 38 45 1 0 10 1 1
438 658 870 1127 1298 1341 1170 979 840 845 1030 945 762 819 701 588 512 478 380 251 90 26 1 0 0 0 0 0 0 0 0 0 0 0 0 3 50 162 41 0 0 0 0
426 611 738 1095 1271 1304 1121 1010 819 915 1028 914 1065 1123 853 594 428 334 298 169 2 4 0 0 0 0 0 0 0 0 0 0 0 0 0 0 0 25 22 10 10 5 4
363 511 676 1022 1235 1294 1175 1063 975 926 934 889 1123 995 821 655 335 173 115 48 3 2 0 0 0 0 0 0 0 0 0 0 0 0 0 0 0 0 0 7 11 12 5
240 472 644 948 1190 1279 1178 1085 951 767 784 828 940 917 841 639 228 59 1 0 0 1 0 0 0 0 0 0 0 0 0 0 0 0 0 0 0 0 0 2 6 7 6
60 482 761 855 1092 1235 1211 1100 919 672 614 801 989 875 836 535 151 2 0 0 1 1 0 0 0 0 0 0 0 0 0 0 0 0 0 0 0 0 0 0 0 0 0
0 205 564 866 970 1121 1164 1076 907 756 508 400 600 867 780 380 51 0 0 0 0 1 0 0 0 0 0 0 0 0 0 0 0 0 0 0 0 0 0 0 0 0 0
0 0 214 508 868 965 1030 1017 747 704 606 502 426 678 595 242 12 0 0 0 0 0 0 0 0 0 0 0 0 0 0 0 0 0 0 0 0 0 0 0 0 0 0
0 0 0 155 361 683 845 797 524 527 527 440 380 409 269 130 0 0 0 0 0 0 0 0 0 0 0 0 0 0 0 0 0 0 0 0 0 0 0 0 0 0 0
0 0 0 1 82 206 340 518 630 549 436 394 338 243 140 12 0 0 0 0 0 0 0 0 0 0 0 0 0 0 0 0 0 0 0 0 0 0 0 0 0 0 0
0 0 0 0 0 20 80 108 237 531 449 378 240 161 14 0 0 0 0 0 0 0 0 0 0 0 0 0 0 0 0 0 0 0 0 0 0 0 0 0 0 0 0
0 0 0 0 0 0 5 18 79 109 91 73 104 91 7 0 0 0 0 0 0 0 0 0 0 0 0 0 0 0 0 0 0 0 0 0 0 0 0 0 0 0 0
0 0 0 0 0 0 0 0 22 121 125 107 102 98 4 0 0 0 0 0 0 0 0 0 0 0 0 0 0 0 0 0 0 0 0 0 0 0 0 0 0 0 8
0 0 0 0 0 0 0 0 0 28 34 39 53 90 0 0 1 0 0 0 0 0 0 0 0 0 0 0 0 0 0 0 0 0 0 0 0 0 0 0 0 2 0
0 0 0 0 0 0 0 0 0 0 0 2 10 7 7 6 0 0 0 0 0 0 0 0 0 0 0 0 0 0 0 0 0 0 0 0 0 0 0 0 0 0 3
0 0 0 0 0 0 0 0 0 0 0 0 7 11 11 10 2 0 0 0 0 0 0 0 0 0 0 0 0 0 0 0 0 0 0 0 0 0 0 0 0 0 0
0 0 0 0 0 0 0 0 0 0 0 0 3 5 8 8 6 1 0 0 0 0 0 0 0 0 0 0 0 0 0 0 0 0 0 0 0 0 0 0 0 0 0
0 0 0 0 0 0 0 0 0 0 0 0 0 0 4 15 3 0 0 0 0 0 0 0 0 0 0 0 0 0 0 0 0 0 0 0 0 0 0 0 0 0 0
0 0 0 0 0 0 0 0 0 0 0 0 0 0 0 0 0 0 0 0 0 0 0 0 0 0 0 0 0 0 0 0 0 0 0 0 0 0 0 0 0 0 0
0 0 0 0 0 0 0 0 0 0 0 0 0 0 0 0 0 0 0 0 0 0 0 0 0 0 0 0 0 0 0 0 0 0 0 0 0 0 0 0 0 0 0
0 0 0 0 0 0 0 0 0 0 0 0 0 0 0 0 0 0 0 0 0 0 0 0 0 0 0 0 0 0 0 0 0 0 0 0 0 0 0 0 0 0 0
0 0 0 0 0 0 0 0 0 0 0 0 0 0 0 0 0 0 0 0 0 0 0 0 0 0 0 0 0 0 0 0 0 0 0 0 0 0 0 0 0 0 0
0 0 0 0 0 0 0 0 0 0 0 0 0 0 0 0 0 0 0 0 0 0 0 0 0 0 0 0 0 0 0 0 0 0 0 0 0 0 0 0 0 0 0

GFSSE_con_mlcape_033.txt.gz
CAPE
260 375 1182 1458 1554 1553 1370 1311 1044 842 721 691 554 620 878 1001 1061 1097 982 830 543 310 50 8 1 0 0 0 0 20 44 183 201 266 288 321 249 202 240 282 339 387 450
181 462 1162 1428 1583 1605 1508 1408 1039 792 761 724 600 569 714 1160 1107 890 692 478 257 118 106 39 20 0 0 0 0 0 6 2 0 0 2 8 12 7 1 67 280 380 380
190 524 1150 1412 1508 1654 1602 1296 948 795 823 811 605 524 700 1000 814 592 361 223 167 122 47 36 7 0 0 0 0 0 0 0 0 0 0 0 0 1 0 0 36 126 60
207 580 1010 1300 1493 1566 1604 1253 969 836 876 874 594 474 476 735 729 698 388 207 100 34 13 3 0 0 0 0 0 0 0 0 0 0 0 29 42 25 10 7 0 0 0
347 676 859 1149 1501 1533 1487 1268 1046 871 850 884 822 690 528 517 582 562 368 248 109 24 1 0 0 0 0 0 0 0 0 0 0 0 8 33 84 108 5 0 0 0 0
317 631 774 1072 1417 1483 1379 1214 1077 975 1064 1025 806 839 899 631 422 339 330 181 4 0 1 0 0 0 0 0 0 0 0 0 0 0 0 0 0 67 43 8 6 4 1
289 578 704 1029 1310 1451 1329 1154 1010 938 1129 991 912 1126 873 585 426 333 303 178 0 3 2 0 0 0 0 0 0 0 0 0 0 0 0 0 0 0 0 0 9 10 3
183 477 623 917 1188 1294 1219 1116 1038 912 1075 1015 998 1050 905 700 399 210 91 63 2 1 1 0 0 0 0 0 0 0 0 0 0 0 0 0 0 0 0 0 1 10 8
206 335 538 778 1079 1186 1119 944 1030 987 933 882 929 957 891 758 345 137 19 0 0 1 2 0 0 0 0 0 0 0 0 0 0 0 0 0 0 0 0 0 0 0 0
0 173 363 640 854 1073 1060 958 1009 915 739 696 777 872 862 632 288 65 0 0 0 0 1 0 0 0 0 0 0 0 0 0 0 0 0 0 0 0 0 0 0 0 0
0 0 195 449 688 903 1027 997 962 846 662 510 635 775 710 478 157 6 0 0 0 0 0 0 0 0 0 0 0 0 0 0 0 0 0 0 0 0 0 0 0 0 0
0 0 1 219 450 715 841 908 911 682 563 419 292 249 391 364 48 0 0 0 0 0 0 0 0 0 0 0 0 0 0 0 0 0 0 0 0 0 0 0 0 0 0
0 0 0 2 250 440 602 737 757 488 386 420 363 284 183 179 43 0 0 0 0 0 0 0 0 0 0 0 0 0 0 0 0 0 0 0 0 0 0 0 0 0 0
0 0 0 0 0 101 377 414 503 509 357 245 240 191 143 59 5 0 0 0 0 0 0 0 0 0 0 0 0 0 0 0 0 0 0 0 0 0 0 0 0 0 0
0 0 0 0 0 0 20 87 132 137 340 367 250 112 68 25 0 0 0 0 0 0 0 0 0 0 0 0 0 0 0 0 0 0 0 0 0 0 0 0 0 0 0
0 0 0 0 0 0 0 0 1 41 51 84 60 7 36 12 0 0 0 0 0 0 0 0 0 0 0 0 0 0 0 0 0 0 0 0 0 0 0 0 0 0 1
0 0 0 0 0 0 0 0 0 0 1 10 6 0 2 7 8 0 1 0 0 0 0 0 0 0 0 0 0 0 0 0 0 0 0 0 0 0 0 0 0 1 6
0 0 0 0 0 0 0 0 0 0 0 14 26 19 23 15 7 0 0 0 0 0 0 0 0 0 0 0 0 0 0 0 0 0 0 0 0 0 0 0 0 0 4
0 0 0 0 0 0 0 0 0 0 0 1 1 6 12 16 10 7 0 0 0 0 0 0 0 0 0 0 0 0 0 0 0 0 0 0 0 0 0 0 0 0 0
0 0 0 0 0 0 0 0 0 0 0 0 0 0 1 3 2 4 1 0 0 0 0 0 0 0 0 0 0 0 0 0 0 0 0 0 0 0 0 0 0 0 0
0 0 0 0 0 0 0 0 0 0 0 0 0 0 0 0 1 1 1 1 0 0 0 0 0 0 0 0 0 0 0 0 0 0 0 0 0 0 0 0 0 0 0
0 0 0 0 0 0 0 0 0 0 0 0 0 0 0 0 0 0 0 0 0 0 0 0 0 0 0 0 0 0 0 0 0 0 0 0 0 0 0 0 0 0 0
0 0 0 0 0 0 0 0 0 0 0 0 0 0 0 0 0 0 0 0 0 0 0 0 0 0 0 0 0 0 0 0 0 0 0 0 0 0 0 0 0 0 0
0 0 0 0 0 0 0 0 0 0 0 0 0 0 0 0 0 0 0 0 0 0 0 0 0 0 0 0 0 0 0 0 0 0 0 0 0 0 0 0 0 0 0
0 0 0 0 0 0 0 0 0 0 0 0 0 0 0 0 0 0 0 0 0 0 0 0 0 0 0 0 0 0 0 0 0 0 0 0 0 0 0 0 0 0 0
0 0 0 0 0 0 0 0 0 0 0 0 0 0 0 0 0 0 0 0 0 0 0 0 0 0 0 0 0 0 0 0 0 0 0 0 0 0 0 0 0 0 0

GFSSE_con_mlcape_036.txt.gz
CAPE
168 415 1296 1357 1476 1522 1485 1225 989 828 809 702 942 1130 1064 1021 1027 983 917 630 328 109 29 40 7 2 0 2 31 34 120 83 133 230 251 201 138 225 313 252 316 351 379
75 392 1205 1399 1494 1584 1509 1312 999 802 773 726 682 821 1191 1221 1035 827 598 352 174 27 34 2 8 0 0 0 0 10 2 0 0 0 0 1 0 0 11 137 203 216 261
140 408 1147 1429 1575 1562 1484 1407 1024 849 870 813 675 700 1039 1024 759 545 378 217 168 60 14 1 0 0 0 0 0 0 0 0 0 0 0 0 2 24 0 0 4 3 5
233 524 1029 1356 1503 1673 1606 1354 1047 906 958 904 671 741 974 939 741 557 367 176 124 79 12 3 0 0 0 0 0 0 0 0 0 0 0 13 38 45 7 0 0 0 0
233 555 921 1199 1467 1552 1692 1384 1067 928 943 934 735 613 538 680 695 598 335 205 104 32 2 1 0 0 0 0 0 0 0 0 0 0 1 11 46 64 0 0 0 0 0
229 527 783 1144 1522 1567 1558 1407 1136 952 925 971 902 732 642 697 481 315 231 153 17 0 0 0 0 0 0 0 0 0 0 0 0 0 0 0 0 41 13 10 11 3 0
159 597 720 1035 1420 1531 1489 1415 1230 1072 1036 1085 922 861 973 714 370 307 264 126 0 0 0 0 0 0 0 0 0 0 0 0 0 0 0 0 0 0 0 0 1 6 3
53 430 619 862 1204 1354 1337 1335 1173 1053 933 1102 929 1028 913 676 417 289 243 105 1 0 1 1 0 0 0 0 0 0 0 0 0 0 0 0 0 0 0 0 0 1 7
98 286 492 669 973 1223 1250 1220 1061 934 855 956 823 954 926 807 484 237 49 9 0 0 0 1 0 0 0 0 0 0 0 0 0 0 0 0 0 0 0 0 0 0 0
0 167 282 464 737 1051 1163 929 666 845 842 857 772 824 855 795 492 179 15 0 0 0 0 0 0 0 0 0 0 0 0 0 0 0 0 0 0 0 0 0 0 0 0
0 0 114 314 558 738 973 796 641 825 881 790 688 701 572 567 379 110 0 0 0 0 0 0 0 0 0 0 0 0 0 0 0 0 0 0 0 0 0 0 0 0 0
0 0 0 19 335 562 717 660 781 852 855 564 366 292 412 424 119 39 1 0 0 0 0 0 0 0 0 0 0 0 0 0 0 0 0 0 0 0 0 0 0 0 0
0 0 0 0 1 326 515 475 529 672 566 413 340 236 200 192 139 8 1 0 0 0 0 0 0 0 0 0 0 0 0 0 0 0 0 0 0 0 0 0 0 0 0
0 0 0 0 0 0 254 406 323 318 404 274 148 253 220 131 45 4 1 0 0 0 0 0 0 0 0 0 0 0 0 0 0 0 0 0 0 0 0 0 0 0 0
0 0 0 0 0 0 0 135 183 147 203 205 194 10 36 20 10 3 2 0 0 0 0 0 0 0 0 0 0 0 0 0 0 0 0 0 0 0 0 0 0 0 0
0 0 0 0 0 0 0 0 31 13 1 7 44 70 45 43 15 3 2 0 0 0 0 0 0 0 0 0 0 0 0 0 0 0 0 0 0 0 0 0 0 1 1
0 0 0 0 0 0 0 0 0 2 1 1 4 16 21 17 22 19 4 0 0 0 0 0 0 0 0 0 0 0 0 0 0 0 0 0 0 0 0 0 0 0 1
0 0 0 0 0 0 0 0 0 1 1 2 2 2 1 1 1 0 0 1 0 0 0 0 0 0 0 0 0 0 0 0 0 0 0 0 0 0 0 0 0 0 2
0 0 0 0 0 0 0 0 0 0 0 0 0 1 4 3 1 1 1 1 1 0 0 0 0 0 0 0 0 0 0 0 0 0 0 0 0 0 0 0 0 0 0
0 0 0 0 0 0 0 0 0 0 0 0 0 0 0 0 2 1 1 0 1 1 0 0 0 0 0 0 0 0 0 0 0 0 0 0 0 0 0 0 0 0 0
0 0 0 0 0 0 0 0 0 0 0 0 0 0 0 0 0 0 0 0 0 0 0 0 0 0 0 0 0 0 0 0 0 0 0 0 0 0 0 0 0 0 0
0 0 0 0 0 0 0 0 0 0 0 0 0 0 0 0 0 0 0 0 0 0 0 0 0 0 0 0 0 0 0 0 0 0 0 0 0 0 0 0 0 0 0
0 0 0 0 0 0 0 0 0 0 0 0 0 0 0 0 0 0 0 0 0 0 0 0 0 0 0 0 0 0 0 0 0 0 0 0 0 0 0 0 0 0 0
0 0 0 0 0 0 0 0 0 0 0 0 0 0 0 0 0 0 0 0 0 0 0 0 0 0 0 0 0 0 0 0 0 0 0 0 0 0 0 0 0 0 0
0 0 0 0 0 0 0 0 0 0 0 0 0 0 0 0 0 0 0 0 0 0 0 0 0 0 0 0 0 0 0 0 0 0 0 0 0 0 0 0 0 0 0
0 0 0 0 0 0 0 0 0 0 0 0 0 0 0 0 0 0 0 0 0 0 0 0 0 0 0 0 0 0 0 0 0 0 0 0 0 0 0 0 0 0 0

GFSSE_con_mlcape_042.txt.gz
CAPE
414 1112 1493 1444 1591 1301 1293 1014 829 861 985 968 769 739 1014 1051 828 415 206 82 36 8 3 4 1 1 7 12 7 2 1 0 24 67 33 94 221 323 227 147 329 345 267
400 1042 1441 1584 1469 1353 1339 983 849 777 961 1162 1178 920 888 868 821 474 214 73 37 1 2 3 0 0 0 0 0 1 0 0 0 0 0 0 0 8 6 0 49 170 272
364 1047 1512 1611 1662 1457 1276 1002 910 994 982 948 1215 1066 981 847 647 305 147 88 31 2 1 0 0 0 0 0 0 0 0 0 0 0 0 16 12 1 0 0 0 0 35
402 1071 1471 1420 1525 1377 1323 1052 928 1034 989 919 1003 1227 1028 798 480 277 139 80 4 0 1 0 0 0 0 0 0 0 0 0 0 5 23 28 13 0 0 0 0 0 0
433 1011 1456 1212 1354 1322 1327 1132 989 1067 1018 858 857 1096 869 702 516 323 130 52 0 0 2 0 0 0 0 0 0 0 0 0 0 15 21 27 29 13 0 0 0 0 0
459 861 1305 1341 1475 1440 1403 1334 1106 1064 1048 831 743 739 709 608 615 382 107 11 0 0 0 0 0 0 0 0 0 0 0 0 0 11 15 11 25 17 20 19 0 0 0
506 788 1153 1207 1400 1299 1415 1462 1216 1027 997 935 858 637 711 710 581 322 88 5 0 0 0 0 0 0 0 0 0 0 0 0 0 0 3 7 8 2 7 6 11 1 0
459 764 942 996 1285 1274 1151 1104 1109 926 837 880 882 790 750 608 467 323 197 45 0 0 0 0 0 0 0 0 0 0 0 0 0 0 0 0 0 0 0 0 0 0 0
320 638 820 929 1116 1266 1347 1163 1091 945 765 671 725 571 770 517 346 223 78 13 0 0 0 0 0 0 0 0 0 0 0 0 0 0 0 0 0 0 0 0 0 0 0
0 0 42 653 732 977 1344 1266 1210 1061 877 732 648 613 603 550 409 71 0 0 0 0 0 0 0 0 0 0 0 0 0 0 0 0 0 0 0 0 0 0 0 0 0
0 0 0 0 74 387 707 1161 1031 815 501 577 616 514 438 722 530 242 10 0 0 0 0 0 0 0 0 0 0 0 0 0 0 0 0 0 0 0 0 0 0 0 0
0 0 0 0 0 0 274 470 637 542 500 702 905 698 527 405 358 205 6 3 7 0 0 0 0 0 0 0 0 0 0 0 0 0 0 0 0 0 0 0 0 0 0
0 0 0 0 0 0 10 327 430 500 509 815 647 402 225 228 179 47 17 10 12 1 0 0 0 0 0 0 0 0 0 0 0 0 0 0 0 0 0 0 0 0 0
0 0 0 0 0 0 0 218 278 256 284 469 369 340 277 172 122 90 34 29 9 9 1 0 0 0 0 0 0 0 0 0 0 0 0 0 0 0 0 0 2 0 0
0 0 0 0 0 0 0 118 243 216 206 245 160 36 21 51 67 155 19 18 22 2 2 5 0 0 0 0 0 0 0 0 0 0 0 0 0 0 0 0 0 7 2
0 0 0 0 0 0 0 32 79 8 1 0 1 2 0 2 9 10 13 6 1 0 0 0 0 0 0 0 0 0 0 0 0 0 0 0 0 0 0 0 0 5 11
0 0 0 0 3 1 1 1 2 2 3 1 4 1 2 1 1 1 1 1 1 1 0 0 0 0 0 0 0 0 0 0 0 0 0 0 0 0 0 0 0 0 0
0 0 0 0 0 0 0 0 0 0 0 0 0 0 0 1 2 1 0 1 1 0 0 0 0 0 0 0 0 0 0 0 0 0 0 0 0 0 0 0 0 0 0
0 0 0 0 0 0 0 0 0 0 0 0 0 0 0 0 0 0 2 2 1 1 0 0 0 0 0 0 0 0 0 0 0 0 0 0 0 0 0 0 0 0 0
0 0 0 0 0 0 0 0 0 0 0 0 0 0 0 0 0 0 0 0 0 0 0 0 0 0 0 0 0 0 0 0 0 0 0 0 0 0 0 0 0 0 0
0 0 0 0 0 0 0 0 0 0 0 0 0 0 0 0 0 0 0 0 0 0 0 0 0 0 0 0 0 0 0 0 0 0 0 0 0 0 0 0 0 0 0
0 0 0 0 0 0 0 0 0 0 0 0 0 0 0 0 0 0 0 0 0 0 0 0 0 0 0 0 0 0 0 0 0 0 0 0 0 0 0 0 0 0 0
0 0 0 0 0 0 0 0 0 0 0 0 0 0 0 0 0 0 0 0 0 0 0 0 0 0 0 0 0 0 0 0 0 0 0 0 0 0 0 0 0 0 0
0 0 0 0 0 0 0 0 0 0 0 0 0 0 0 0 0 0 0 0 0 0 0 0 0 0 0 0 0 0 0 0 0 0 0 0 0 0 0 0 0 0 0
0 0 0 0 0 0 0 0 0 0 0 0 0 0 0 0 0 0 0 0 0 0 0 0 0 0 0 0 0 0 0 0 0 0 0 0 0 0 0 0 0 0 0
0 0 0 0 0 0 0 0 0 0 0 0 0 0 0 0 0 0 0 0 0 0 0 0 0 0 0 0 0 0 0 0 0 0 0 0 0 0 0 0 0 0 0

GFSSE_con_mlcape_045.txt.gz
CAPE
775 1384 1425 1436 1495 1305 1093 901 871 732 552 462 497 944 1072 789 424 194 79 30 28 14 7 2 2 7 4 3 0 0 0 0 0 0 0 11 107 146 97 84 150 274 307
697 1391 1448 1466 1455 1319 1111 915 884 1049 1178 1276 1276 1194 1063 898 533 194 82 53 24 3 1 2 0 0 0 0 0 0 0 0 0 0 20 0 0 0 0 0 7 172 256
711 1451 1518 1574 1278 1217 1104 962 905 900 897 1098 1119 1088 920 792 421 213 76 15 3 3 1 0 0 0 0 0 0 0 0 0 0 0 11 26 1 3 1 0 0 0 26
651 1356 1543 1584 1378 1297 1068 914 975 987 929 1135 1073 1005 781 718 381 196 82 18 8 3 3 0 0 0 0 0 0 0 0 0 0 0 11 20 9 0 1 0 0 0 0
624 1278 1662 1461 1374 1282 1180 1021 1069 1074 1018 971 1053 920 928 647 369 213 60 12 0 2 5 0 0 0 0 0 0 0 0 0 0 11 9 9 20 25 11 0 0 0 0
566 1135 1485 1242 1328 1329 1248 1113 1088 1121 1025 900 936 1019 906 787 474 205 54 2 0 0 2 1 0 0 0 0 0 0 0 0 0 7 10 7 3 24 33 25 0 0 0
468 977 1500 1231 1413 1418 1176 1009 918 996 991 917 778 656 721 680 429 205 39 0 0 0 0 0 0 0 0 0 0 0 0 0 0 0 2 3 0 1 5 10 10 7 0
534 923 1151 1147 1279 1361 1182 1113 1023 871 794 660 770 735 755 569 333 278 94 1 0 0 0 0 0 0 0 0 0 0 0 0 0 0 0 0 0 0 0 0 0 3 2
511 753 781 884 1043 1184 1224 1148 1065 851 661 546 571 461 536 431 299 267 100 6 0 0 0 0 0 0 0 0 0 0 0 0 0 0 0 0 0 0 0 0 0 0 0
0 0 95 492 832 973 1367 1116 1090 1015 813 684 566 506 476 476 232 17 0 0 0 0 0 0 0 0 0 0 0 0 0 0 0 0 0 0 0 0 0 0 0 0 0
0 0 0 0 58 239 652 972 995 854 746 563 612 518 372 681 429 109 8 2 3 1 0 0 0 0 0 0 0 0 0 0 0 0 0 0 0 0 0 0 0 0 0
0 0 0 0 0 0 208 551 976 1040 694 545 801 690 647 531 471 274 6 7 7 4 2 0 0 0 0 0 0 0 0 0 0 0 0 0 0 0 0 0 0 0 0
0 0 0 0 0 0 1 201 528 613 303 582 734 620 498 400 342 245 32 10 11 4 3 2 1 0 0 0 0 0 0 0 0 0 0 0 0 0 0 0 0 0 0
0 0 0 0 0 0 0 81 260 340 737 658 539 481 483 430 254 119 65 39 39 11 10 6 0 0 0 0 0 0 0 0 0 0 0 0 0 0 0 0 0 7 1
0 0 0 0 0 0 0 47 197 127 189 8 0 3 72 71 49 81 19 29 28 7 4 17 3 0 0 0 0 0 0 0 0 0 0 0 0 0 0 0 0 2 14
0 0 0 0 1 0 1 16 1 1 0 1 1 3 2 5 5 4 3 1 0 0 0 0 0 0 0 0 0 0 0 0 0 0 0 0 0 0 0 0 0 0 1
0 0 0 1 0 2 1 2 3 2 2 2 2 1 1 1 2 2 2 2 4 2 0 0 0 0 0 0 0 0 0 0 0 0 0 0 0 0 0 0 0 0 0
0 0 0 1 0 0 0 0 0 0 0 0 0 0 0 0 2 3 3 3 2 2 1 0 0 0 0 0 0 0 0 0 0 0 0 0 0 0 0 0 0 0 0
0 0 0 0 0 0 0 0 0 0 0 0 0 0 0 0 0 0 0 0 0 0 0 0 1 0 1 0 0 0 0 0 0 0 0 0 0 0 0 0 0 0 0
0 0 0 0 0 0 0 0 0 0 0 0 0 0 0 0 0 0 0 0 0 0 0 0 0 0 0 0 0 0 0 0 0 0 0 0 0 0 0 0 0 0 0
0 0 0 0 0 0 0 0 0 0 0 0 0 0 0 0 0 0 0 0 0 0 0 0 0 0 0 0 0 0 0 0 0 0 0 0 0 0 0 0 0 0 0
0 0 0 0 0 0 0 0 0 0 0 0 0 0 0 0 0 0 0 0 0 0 0 0 0 0 0 0 0 0 0 0 0 0 0 0 0 0 0 0 0 0 0
0 0 0 0 0 0 0 0 0 0 0 0 0 0 0 0 0 0 0 0 0 0 0 0 0 0 0 0 0 0 0 0 0 0 0 0 0 0 0 0 0 0 0
0 0 0 0 0 0 0 0 0 0 0 0 0 0 0 0 0 0 0 0 0 0 0 0 0 0 0 0 0 0 0 0 0 0 0 0 0 0 0 0 0 0 0
0 0 0 0 0 0 0 0 0 0 0 0 0 0 0 0 0 0 0 0 0 0 0 0 0 0 0 0 0 0 0 0 0 0 0 0 0 0 0 0 0 0 0
0 0 0 0 0 0 0 0 0 0 0 0 0 0 0 0 0 0 0 0 0 0 0 0 0 0 0 0 0 0 0 0 0 0 0 0 0 0 0 0 0 0 0

GFSSE_con_mlcape_048.txt.gz
CAPE
1203 1205 1385 1526 1388 1113 916 747 530 435 454 497 1041 1004 735 499 251 88 63 24 4 4 3 1 2 4 4 0 0 0 0 0 0 21 0 0 0 0 0 47 177 251 338
1372 1267 1528 1575 1435 1172 936 825 928 1097 1116 1243 1193 967 873 579 238 116 39 4 4 2 1 0 0 0 0 0 0 0 0 0 0 2 15 0 0 1 0 0 5 151 287
1438 1390 1538 1476 1514 1160 947 800 944 1129 1198 1136 1194 1089 836 485 268 91 38 17 5 4 1 0 0 0 0 0 0 0 0 0 0 13 20 4 0 0 1 0 0 1 59
1445 1452 1620 1467 1141 1174 901 976 953 946 1002 1125 1089 921 815 487 258 111 38 7 3 4 3 0 0 0 0 0 0 0 0 0 0 11 9 24 9 1 4 1 0 0 0
1129 1487 1511 1453 1160 963 889 1010 1070 1031 1012 1133 1042 937 822 426 243 89 20 0 0 0 1 0 0 0 0 0 0 0 0 0 0 6 0 6 8 25 33 12 0 0 0
1028 1578 1398 1255 1172 1083 983 839 1001 957 860 976 821 982 833 580 262 79 20 0 0 0 0 0 0 0 0 0 0 0 0 0 0 0 0 0 0 1 18 23 26 8 2
670 1458 1357 1199 1296 1167 1015 836 762 834 852 800 759 716 606 535 278 63 23 0 1 0 0 0 0 0 0 0 0 0 0 0 0 0 0 0 0 0 0 1 7 9 5
713 1143 1282 1071 1291 1335 1076 904 790 673 602 582 673 658 571 398 328 132 21 0 0 0 0 0 0 0 0 0 0 0 0 0 0 0 0 0 0 0 0 0 0 1 2
581 753 845 1092 977 1133 1064 1065 968 722 596 507 469 380 428 297 226 108 4 0 0 0 0 0 0 0 0 0 0 0 0 0 0 0 0 0 0 0 0 0 0 0 0
0 0 0 208 636 980 1190 988 975 843 643 528 496 416 406 279 133 26 0 2 1 0 0 0 0 0 0 0 0 0 0 0 0 0 0 0 0 0 0 0 0 0 0
0 0 0 0 32 125 488 1029 938 826 723 530 476 392 319 398 78 14 1 8 8 4 2 0 0 0 0 0 0 0 0 0 0 0 0 0 0 0 0 0 0 0 0
0 0 0 0 0 0 27 360 995 772 594 380 584 514 386 316 223 0 0 6 7 7 4 1 0 0 0 0 0 0 0 0 0 0 0 0 0 0 0 0 0 0 0
0 0 0 0 0 0 0 57 474 683 379 379 483 475 273 156 19 3 0 5 1 7 3 1 0 0 0 0 0 0 0 0 0 0 0 0 0 0 0 0 0 5 0
0 0 0 0 0 0 0 1 25 196 244 146 62 148 92 58 66 39 17 31 27 10 4 3 0 0 0 0 0 0 0 0 0 0 0 0 0 0 0 0 0 0 10
0 0 0 0 0 0 0 17 8 6 0 0 0 0 0 0 1 0 0 2 4 0 1 0 0 0 0 0 0 0 0 0 0 0 0 0 0 0 0 0 0 0 0
0 0 0 0 0 0 0 0 0 0 0 0 0 0 0 0 0 1 1 2 1 1 0 0 0 0 0 0 0 0 0 0 0 0 0 0 0 0 0 0 0 0 0
0 0 0 0 0 0 0 0 0 0 0 0 0 0 0 0 0 0 0 0 1 1 1 0 0 0 0 0 0 0 0 0 0 0 0 0 0 0 0 0 0 0 0
0 0 0 0 0 0 0 0 0 0 0 0 0 0 0 0 0 0 0 0 0 0 0 0 0 0 0 0 0 0 0 0 0 0 0 0 0 0 0 0 0 0 0
0 0 0 0 0 0 0 0 0 0 0 0 0 0 0 0 0 0 0 0 0 0 0 0 0 0 0 0 0 0 0 0 0 0 0 0 0 0 0 0 0 0 0
0 0 0 0 0 0 0 0 0 0 0 0 0 0 0 0 0 0 0 0 0 0 0 0 0 0 0 0 0 0 0 0 0 0 0 0 0 0 0 0 0 0 0
0 0 0 0 0 0 0 0 0 0 0 0 0 0 0 0 0 0 0 0 0 0 0 0 0 0 0 0 0 0 0 0 0 0 0 0 0 0 0 0 0 0 0
0 0 0 0 0 0 0 0 0 0 0 0 0 0 0 0 0 0 0 0 0 0 0 0 0 0 0 0 0 0 0 0 0 0 0 0 0 0 0 0 0 0 0
0 0 0 0 0 0 0 0 0 0 0 0 0 0 0 0 0 0 0 0 0 0 0 0 0 0 0 0 0 0 0 0 0 0 0 0 0 0 0 0 0 0 0
0 0 0 0 0 0 0 0 0 0 0 0 0 0 0 0 0 0 0 0 0 0 0 0 0 0 0 0 0 0 0 0 0 0 0 0 0 0 0 0 0 0 0
0 0 0 0 0 0 0 0 0 0 0 0 0 0 0 0 0 0 0 0 0 0 0 0 0 0 0 0 0 0 0 0 0 0 0 0 0 0 0 0 0 0 0
0 0 0 0 0 0 0 0 0 0 0 0 0 0 0 0 0 0 0 0 0 0 0 0 0 0 0 0 0 0 0 0 0 0 0 0 0 0 0 0 0 0 0